レオナード彗星

P/2018 L5 ( Leonard )

English version
Home page
Updated on March 6, 2020

---------------------------------------------------------------------

・ プロフィール

発見日 2018年6月14日
発見光度 18.5等
発見者 G. J. Leonard (Mount Lemmon)

・ 写真集

・ 軌道要素

Epoch 2018 May 2.0 TT = JDT 2458240.5
T 2018 May 4.48353 TT                                   Williams
q   2.3033490            (2000.0)            P               Q
n   0.14286538     Peri.   93.63902     +0.67894363     +0.73378677
a   3.6239710      Node   219.15869     -0.68798364     +0.62428799
e   0.3644130      Incl.    2.20916     -0.25634753     +0.26799529
P   6.90
From 185 observations 2018 June 8-2019 Dec. 19, mean residual 0".5.

・ 光度変化

        m1 = 13.5 + 5 logΔ + 10.0 log r

---------------------------------------------------------------------

軌道要素はM.P.E.C. 2020-A105に掲載されたものです。
光度グラフはComet for Windowsで作成したものです。

---------------------------------------------------------------------

Copyright(C) Seiichi Yoshida (comet@aerith.net). All rights reserved.